Location: *
(53.4003°S, 165.3236°W)
Time: 01:45:57
(UTC+00:00)

CZ-4 R/B - Pass Details

Date: 11 December 2023
Orbit: 679 x 749 km, 98.6° (Epoch: 24 February)

Event Time Altitude Azimuth Distance (km) Brightness Sun altitude
Exits shadow 13:15:08 - 357° (N) 2,480 6.1 -7.8°
Reaches altitude 10° 13:16:01 10° 354° (N) 2,136 5.8 -7.7°
Maximum altitude 13:20:32 47° 280° (W) 917 4.2 -7.3°
Drops below altitude 10° 13:25:08 10° 205° (SSW) 2,178 6.8 -6.9°
Sets 13:27:30 0° 199° (SSW) 3,110 7.7 -6.7°
